Regional Weather Roundup
Issued by NWS

Home | Current Version | Previous Version | Graphics & Text | Print | Product List | Glossary On
Versions: 1 2 3 4 5 6 7 8 9 10 11 12 13 14 15 16 17 18 19 20 21 22 23 24 25 26 27 28 29 30 31 32 33 34 35 36 37 38 39 40 41 42 43 44 45 46 47 48 49 50
000
ASUS43 KIND 302309
RWRIN

WEATHER ROUNDUP FOR INDIANA
NATIONAL WEATHER SERVICE INDIANAPOLIS IN
700 PM EDT THU JUL 30 2015

NOTE: "FAIR" INDICATES FEW OR NO CLOUDS BELOW 12,000 FEET WITH NO
SIGNIFICANT WEATHER AND/OR OBSTRUCTIONS TO VISIBILITY.

* - STATION DOES NOT REPORT WEATHER SUCH AS PRECIPITATION OR FOG.

+ - STATION NOT QUALITY CONTROLLED BY THE NATIONAL WEATHER SERVICE.
    USE DATA WITH CAUTION...ESPECIALLY DEWPOINT AND RELATIVE
    HUMIDITY OBSERVATIONS.

INZ001>003-010>013-019-020-310000-
NORTHWEST INDIANA

CITY           SKY/WX    TMP DP  RH WIND       PRES   REMARKS
GARY /AIRPORT/ MOSUNNY   88  54  31 W9G23     30.02S
KNOX *+        SUNNY     82  55  39 NW6       30.01F
LA PORTE +     SUNNY     85  56  37 NW5       30.03F
MICHIGAN CITY+ SUNNY     82  52  34 NW3       30.02F
MONTICELLO +   MOSUNNY   83  58  41 W9        30.03F
RENSSELAER +   SUNNY     82  55  39 W9        30.04F
VALPARAISO     SUNNY     85  56  37 VRB5      30.02F

$$

LMZ046-743>745-310000-
SOUTHERN LAKE MICHIGAN

STATION/POSITION TIME  TEMP    WIND        PRES    WAVE
                       AIR SEA DIR/SP/G            HT
                 (UTC) (F)     (DEG/KT/KT) (MB)    (FT)
BURNS HARBOR     2200   87      CALM  /  1 1016.9F
MICHIGAN CITY    2200   80     230/  2/  3   N/A
5NW MICH CITY    2300   79 76  220/  4/  4   N/A     1

$$

INZ004-005-014>016-021>024-310000-
NORTH CENTRAL INDIANA

CITY           SKY/WX    TMP DP  RH WIND       PRES   REMARKS
ELKHART        SUNNY     84  52  32 NW8       30.02F
GOSHEN         SUNNY     81  58  45 NW14G20   30.02F
LOGANSPORT +   SUNNY     82  52  34 W6        30.04F
PERU/GRISSOM   MOSUNNY   84  58  41 NW10      30.02F
ROCHESTER +    SUNNY     86  54  32 N6        30.03F
SOUTH BEND     SUNNY     84  55  36 W9        30.02F
WARSAW +       SUNNY     82  55  39 NW6       30.02F

$$

INZ006>009-017-018-025>027-310000-
NORTHEAST INDIANA

CITY           SKY/WX    TMP DP  RH WIND       PRES   REMARKS
ANGOLA *+      SUNNY     82  57  42 NW8       30.01F
AUBURN +       SUNNY     82  48  30 NW9G17    30.03S
FORT WAYNE     MOSUNNY   82  55  39 W13       30.03S
HUNTINGTON +   SUNNY     82  55  40 W5        30.03S

$$

INZ028-029-035-036-043>045-051>053-310000-
WEST CENTRAL INDIANA

CITY           SKY/WX    TMP DP  RH WIND       PRES   REMARKS
CRAWFORDSVL +  SUNNY     80  54  41 NW7         N/A
GREENCASTLE +  SUNNY     82  52  34 NW5       30.07F
LAFAYETTE      SUNNY     82  59  45 W8        30.04F
TERRE HAUTE    SUNNY     85  60  42 NW7       30.06F

$$

INZ030>032-037>040-046>048-054>057-064-065-310000-
CENTRAL INDIANA

CITY           SKY/WX    TMP DP  RH WIND       PRES   REMARKS
FISHERS *+     SUNNY     81  59  47 NW13      30.05F
FRANKFORT +    SUNNY     82  59  45 W7        30.07F
GREENWOOD *+   SUNNY     82  46  28 NW13G20   30.06F
INDIANAPOLIS   MOSUNNY   84  56  38 W13       30.05F
-EAGLE CREEK   SUNNY     83  57  41 NW9       30.05F
KOKOMO *+      SUNNY     84  57  39 NW8       30.04S
MARION +       MOSUNNY   81  57  43 NW7       30.04F
MT COMFORT *+  SUNNY     82  43  24 NW10      30.06F
SHELBYVILLE    SUNNY     83  59  44 NW10      30.04F
ZIONSVILLE +   SUNNY     82  55  39 NW6       30.07F

$$

INZ033-034-041-042-049-050-058-059-310000-
EAST CENTRAL INDIANA

CITY           SKY/WX    TMP DP  RH WIND       PRES   REMARKS
MUNCIE         SUNNY     81  56  42 NW12      30.04F

$$

INZ060-061-067>069-081>083-085>088-310000-
SOUTHWEST INDIANA

CITY           SKY/WX    TMP DP  RH WIND       PRES   REMARKS
EVANSVILLE     MOSUNNY   86  61  42 NW7       30.07F
HUNTINGBURG *+ SUNNY     82  61  47 NW5       30.06F
WASHINGTON +   MOSUNNY   82  58  42 NW6       30.05F

$$

INZ062-063-066-070>080-084-089>092-310000-
SOUTH CENTRAL AND SOUTHEAST INDIANA

CITY           SKY/WX    TMP DP  RH WIND       PRES   REMARKS
BLOOMINGTON    SUNNY     83  58  42 NW6       30.06F
MADISON *+     SUNNY     82  52  34 NW6       30.07F
NORTH VERNON + SUNNY     84  54  34 W6        30.06F
SEYMOUR +      SUNNY     86  59  39 NW10      30.05F

$$




USA.gov is the U.S. government's official web portal to all federal, state and local government web resources and services.